Вернуться в каталог

STARLINK-37969

АктивенСвязьSSO
NORAD 69710·PAYLOAD·🇺🇸 United States

Запущен Jun 28, 2026 с Vandenberg Space Force Base

Loading…

Ближайшие Пролёты (ближайшие 24 часа)

TLE

СвежийSource: CelesTrak SupGP

Эпоха: Sep 15, 2026, 03:47 UTC

1 69710C 26147G   26258.15812500 -.00045787  00000+0 -14215-2 0  2583
2 69710  97.2837 294.5579 0001449  86.7209 242.4503 15.33459342    12

Отслеживайте STARLINK-37969 в реальном времени с AllMySat

Download on the App Store